Time,TemperatureF,DewpointF,PressureIn,WindDirection,WindDirectionDegrees,WindSpeedMPH,WindSpeedGustMPH,Humidity,HourlyPrecipIn,Conditions,Clouds,dailyrainin,SoftwareType,DateUTC
2013-02-22 00:07:00,22.8,13.5,30.20,NNE,22,1.8,1.8,67,0.00,,,0.00,WUHU21623XXSP,2013-02-22 05:07:00,
2013-02-22 00:17:00,22.8,13.8,30.21,NNE,22,0.0,2.9,68,0.00,,,0.00,WUHU21623XXSP,2013-02-22 05:17:00,
2013-02-22 00:27:00,22.8,13.8,30.19,NE,45,2.2,4.9,68,0.00,,,0.00,WUHU21623XXSP,2013-02-22 05:27:00,
2013-02-22 00:37:00,22.6,13.8,30.20,NNE,22,0.0,1.1,68,0.00,,,0.00,WUHU21623XXSP,2013-02-22 05:37:00,
2013-02-22 00:47:00,22.8,13.8,30.21,NNW,337,2.0,2.0,68,0.00,,,0.00,WUHU21623XXSP,2013-02-22 05:47:00,
2013-02-22 00:57:00,22.8,13.8,30.21,NW,315,3.4,4.0,68,0.00,,,0.00,WUHU21623XXSP,2013-02-22 05:57:00,
2013-02-22 01:07:00,22.8,13.8,30.22,NW,315,2.7,3.4,68,0.00,,,0.00,WUHU21623XXSP,2013-02-22 06:07:00,
2013-02-22 01:17:00,22.8,14.2,30.22,NE,45,2.7,6.5,69,0.00,,,0.00,WUHU21623XXSP,2013-02-22 06:17:00,
2013-02-22 01:27:00,22.8,14.2,30.21,NE,45,4.9,7.8,69,0.00,,,0.00,WUHU21623XXSP,2013-02-22 06:27:00,
2013-02-22 01:37:00,22.8,14.2,30.21,NE,45,3.4,4.5,69,0.00,,,0.00,WUHU21623XXSP,2013-02-22 06:37:00,
2013-02-22 01:47:00,23.2,14.2,30.20,NE,45,4.0,7.4,68,0.00,,,0.00,WUHU21623XXSP,2013-02-22 06:47:00,
2013-02-22 01:57:00,23.2,14.2,30.19,NE,45,0.0,4.0,68,0.00,,,0.00,WUHU21623XXSP,2013-02-22 06:57:00,
2013-02-22 02:07:00,23.2,14.2,30.21,NE,45,0.0,0.0,68,0.00,,,0.00,WUHU21623XXSP,2013-02-22 07:07:00,
2013-02-22 02:17:00,23.5,14.5,30.21,NE,45,0.9,0.9,68,0.00,,,0.00,WUHU21623XXSP,2013-02-22 07:17:00,
2013-02-22 02:27:00,23.7,14.6,30.20,NE,45,1.8,2.9,68,0.00,,,0.00,WUHU21623XXSP,2013-02-22 07:27:00,
2013-02-22 02:37:00,23.9,14.6,30.19,NE,45,3.4,4.5,68,0.00,,,0.00,WUHU21623XXSP,2013-02-22 07:37:00,
2013-02-22 02:47:00,23.9,14.8,30.18,NE,45,0.0,3.4,68,0.00,,,0.00,WUHU21623XXSP,2013-02-22 07:47:00,
2013-02-22 02:57:00,23.9,14.5,30.18,NE,45,0.0,0.0,67,0.00,,,0.00,WUHU21623XXSP,2013-02-22 07:57:00,
2013-02-22 03:07:00,24.1,15.0,30.15,ENE,67,1.8,3.8,68,0.00,,,0.00,WUHU21623XXSP,2013-02-22 08:07:00,
2013-02-22 03:17:00,24.1,15.0,30.14,ENE,67,1.8,4.0,68,0.00,,,0.00,WUHU21623XXSP,2013-02-22 08:17:00,
2013-02-22 03:27:00,24.4,15.3,30.12,ENE,67,2.7,5.8,68,0.00,,,0.00,WUHU21623XXSP,2013-02-22 08:27:00,
2013-02-22 03:37:00,25.5,15.7,30.12,ENE,67,2.7,5.1,66,0.00,,,0.00,WUHU21623XXSP,2013-02-22 08:37:00,
2013-02-22 03:47:00,25.7,15.8,30.11,ENE,67,0.0,2.0,66,0.00,,,0.00,WUHU21623XXSP,2013-02-22 08:47:00,
2013-02-22 03:57:00,25.5,15.7,30.11,NE,45,0.0,0.0,66,0.00,,,0.00,WUHU21623XXSP,2013-02-22 08:57:00,
2013-02-22 04:07:00,25.9,16.0,30.11,NE,45,0.0,0.0,66,0.00,,,0.00,WUHU21623XXSP,2013-02-22 09:07:00,
2013-02-22 04:17:00,26.2,16.0,30.11,North,0,2.9,2.9,65,0.00,,,0.00,WUHU21623XXSP,2013-02-22 09:17:00,
2013-02-22 04:27:00,26.2,16.0,30.09,North,0,0.0,1.8,65,0.00,,,0.00,WUHU21623XXSP,2013-02-22 09:27:00,
2013-02-22 04:37:00,26.4,16.2,30.09,North,0,0.0,0.0,65,0.00,,,0.00,WUHU21623XXSP,2013-02-22 09:37:00,
2013-02-22 04:47:00,27.0,16.3,30.10,North,0,0.0,0.9,64,0.00,,,0.00,WUHU21623XXSP,2013-02-22 09:47:00,
2013-02-22 04:57:00,27.1,16.5,30.11,North,0,0.0,0.9,64,0.00,,,0.00,WUHU21623XXSP,2013-02-22 09:57:00,
2013-02-22 05:07:00,27.5,16.5,30.12,North,0,2.2,2.2,63,0.00,,,0.00,WUHU21623XXSP,2013-02-22 10:07:00,
2013-02-22 05:17:00,27.5,16.9,30.11,NNE,22,0.0,1.6,64,0.00,,,0.00,WUHU21623XXSP,2013-02-22 10:17:00,
2013-02-22 05:27:00,28.8,17.4,30.11,ENE,67,4.7,4.7,62,0.00,,,0.00,WUHU21623XXSP,2013-02-22 10:27:00,
2013-02-22 05:37:00,29.8,17.6,30.09,East,90,7.2,7.4,60,0.00,,,0.00,WUHU21623XXSP,2013-02-22 10:37:00,
2013-02-22 05:47:00,31.1,17.6,30.09,East,90,3.1,6.7,57,0.00,,,0.00,WUHU21623XXSP,2013-02-22 10:47:00,
2013-02-22 05:57:00,31.8,17.9,30.09,ENE,67,2.5,6.5,56,0.00,,,0.00,WUHU21623XXSP,2013-02-22 10:57:00,
2013-02-22 06:07:00,31.8,17.0,30.08,ENE,67,4.3,4.9,54,0.00,,,0.00,WUHU21623XXSP,2013-02-22 11:07:00,
2013-02-22 06:17:00,32.2,17.8,30.06,ENE,67,1.6,3.8,55,0.00,,,0.00,WUHU21623XXSP,2013-02-22 11:17:00,
2013-02-22 06:27:00,33.1,17.7,30.07,East,90,6.5,6.9,53,0.00,,,0.00,WUHU21623XXSP,2013-02-22 11:27:00,
2013-02-22 06:37:00,33.4,18.0,30.06,ENE,67,4.0,5.4,53,0.00,,,0.00,WUHU21623XXSP,2013-02-22 11:37:00,
2013-02-22 06:47:00,33.6,18.2,30.06,ESE,112,1.6,4.9,53,0.00,,,0.00,WUHU21623XXSP,2013-02-22 11:47:00,
2013-02-22 06:57:00,33.8,18.4,30.05,East,90,10.1,10.1,53,0.00,,,0.00,WUHU21623XXSP,2013-02-22 11:57:00,
2013-02-22 07:07:00,34.0,19.0,30.05,ENE,67,0.0,2.5,54,0.00,,,0.00,WUHU21623XXSP,2013-02-22 12:07:00,
2013-02-22 07:17:00,34.3,19.8,30.04,SSE,157,4.5,5.1,55,0.00,,,0.00,WUHU21623XXSP,2013-02-22 12:17:00,
2013-02-22 07:27:00,34.3,19.8,30.04,SE,135,2.0,5.1,55,0.00,,,0.00,WUHU21623XXSP,2013-02-22 12:27:00,
2013-02-22 07:37:00,34.3,20.2,30.04,East,90,2.0,2.0,56,0.00,,,0.00,WUHU21623XXSP,2013-02-22 12:37:00,
2013-02-22 07:47:00,34.3,20.2,30.03,ENE,67,4.5,4.5,56,0.00,,,0.00,WUHU21623XXSP,2013-02-22 12:47:00,
2013-02-22 07:57:00,34.7,20.8,30.04,ESE,112,2.0,5.8,57,0.00,,,0.00,WUHU21623XXSP,2013-02-22 12:57:00,
2013-02-22 08:07:00,34.9,21.6,30.04,SSE,157,0.0,2.0,58,0.00,,,0.00,WUHU21623XXSP,2013-02-22 13:07:00,
2013-02-22 08:17:00,35.2,22.4,30.03,SSE,157,0.9,1.6,59,0.00,,,0.00,WUHU21623XXSP,2013-02-22 13:17:00,
2013-02-22 08:27:00,35.4,22.6,30.03,SE,135,1.8,4.5,59,0.00,,,0.00,WUHU21623XXSP,2013-02-22 13:27:00,
2013-02-22 08:37:00,35.4,23.0,30.03,SE,135,1.8,4.0,60,0.00,,,0.00,WUHU21623XXSP,2013-02-22 13:37:00,
2013-02-22 08:47:00,35.8,23.7,30.03,ENE,67,0.0,7.8,61,0.00,,,0.00,WUHU21623XXSP,2013-02-22 13:47:00,
2013-02-22 08:57:00,36.1,24.4,30.03,East,90,0.0,0.0,62,0.00,,,0.00,WUHU21623XXSP,2013-02-22 13:57:00,
2013-02-22 09:07:00,36.0,24.2,30.02,SE,135,1.1,6.0,62,0.00,,,0.00,WUHU21623XXSP,2013-02-22 14:07:00,
2013-02-22 09:17:00,35.8,24.8,30.02,SE,135,0.0,1.3,64,0.00,,,0.00,WUHU21623XXSP,2013-02-22 14:17:00,
2013-02-22 09:27:00,35.4,25.5,30.03,ESE,112,0.0,1.3,67,0.00,,,0.00,WUHU21623XXSP,2013-02-22 14:27:00,
2013-02-22 09:37:00,35.4,26.9,30.02,WSW,247,0.0,0.0,71,0.00,,,0.00,WUHU21623XXSP,2013-02-22 14:37:00,
2013-02-22 09:47:00,35.4,27.6,30.02,SE,135,0.0,2.0,73,0.01,,,0.01,WUHU21623XXSP,2013-02-22 14:47:00,
2013-02-22 09:57:00,35.2,27.7,30.02,SW,225,6.0,6.0,74,0.01,,,0.01,WUHU21623XXSP,2013-02-22 14:57:00,
2013-02-22 10:07:00,35.4,28.5,30.03,South,180,1.1,1.8,76,0.01,,,0.01,WUHU21623XXSP,2013-02-22 15:07:00,
2013-02-22 10:17:00,35.8,29.2,30.02,SSE,157,0.9,1.1,77,0.01,,,0.01,WUHU21623XXSP,2013-02-22 15:17:00,
2013-02-22 10:27:00,35.8,29.2,30.02,SE,135,0.0,0.9,77,0.01,,,0.01,WUHU21623XXSP,2013-02-22 15:27:00,
2013-02-22 10:37:00,35.6,29.7,30.02,SE,135,0.0,0.0,79,0.01,,,0.02,WUHU21623XXSP,2013-02-22 15:37:00,
2013-02-22 10:47:00,36.0,30.4,30.02,SE,135,0.0,0.0,80,0.02,,,0.02,WUHU21623XXSP,2013-02-22 15:47:00,
2013-02-22 10:57:00,36.1,30.6,30.02,SE,135,0.0,0.0,80,0.02,,,0.02,WUHU21623XXSP,2013-02-22 15:57:00,
2013-02-22 11:07:00,36.3,30.7,30.02,South,180,0.0,0.0,80,0.02,,,0.02,WUHU21623XXSP,2013-02-22 16:07:00,
2013-02-22 11:17:00,36.7,31.4,30.02,SSE,157,0.0,1.1,81,0.02,,,0.02,WUHU21623XXSP,2013-02-22 16:17:00,
2013-02-22 11:27:00,37.2,31.5,30.02,SSE,157,3.6,3.6,80,0.01,,,0.02,WUHU21623XXSP,2013-02-22 16:27:00,
2013-02-22 11:37:00,37.6,32.0,30.02,SSE,157,0.0,8.3,80,0.01,,,0.02,WUHU21623XXSP,2013-02-22 16:37:00,
2013-02-22 11:47:00,37.9,32.0,30.02,SSE,157,0.0,5.4,79,0.00,,,0.02,WUHU21623XXSP,2013-02-22 16:47:00,
2013-02-22 11:57:00,38.5,32.6,30.01,SE,135,0.0,3.4,79,0.00,,,0.02,WUHU21623XXSP,2013-02-22 16:57:00,
2013-02-22 12:07:00,38.8,32.9,30.02,SSE,157,0.0,0.0,79,0.00,,,0.02,WUHU21623XXSP,2013-02-22 17:07:00,
2013-02-22 12:17:00,39.0,33.1,30.01,SE,135,0.0,0.9,79,0.00,,,0.02,WUHU21623XXSP,2013-02-22 17:17:00,
2013-02-22 12:27:00,39.6,33.3,30.01,SSE,157,6.5,6.9,78,0.00,,,0.02,WUHU21623XXSP,2013-02-22 17:27:00,
2013-02-22 12:37:00,39.9,33.6,30.00,SE,135,0.0,1.8,78,0.00,,,0.02,WUHU21623XXSP,2013-02-22 17:37:00,
2013-02-22 12:47:00,40.6,33.9,30.00,SE,135,0.0,2.9,77,0.00,,,0.02,WUHU21623XXSP,2013-02-22 17:47:00,
2013-02-22 12:57:00,41.4,34.6,30.00,South,180,1.6,5.1,77,0.00,,,0.02,WUHU21623XXSP,2013-02-22 17:57:00,
2013-02-22 13:07:00,41.9,34.7,30.00,South,180,5.6,5.6,76,0.00,,,0.02,WUHU21623XXSP,2013-02-22 18:07:00,
2013-02-22 13:17:00,42.1,35.0,29.99,SSW,202,0.0,5.6,76,0.00,,,0.02,WUHU21623XXSP,2013-02-22 18:17:00,
2013-02-22 13:27:00,42.4,35.4,29.99,South,180,0.0,0.0,76,0.00,,,0.02,WUHU21623XXSP,2013-02-22 18:27:00,
2013-02-22 13:37:00,42.4,35.1,29.99,SSE,157,2.0,2.2,75,0.00,,,0.02,WUHU21623XXSP,2013-02-22 18:37:00,
2013-02-22 13:47:00,42.6,35.2,29.99,SSE,157,0.0,0.0,75,0.00,,,0.02,WUHU21623XXSP,2013-02-22 18:47:00,
2013-02-22 13:57:00,43.0,35.6,30.00,SE,135,0.0,0.0,75,0.00,,,0.02,WUHU21623XXSP,2013-02-22 18:57:00,
2013-02-22 14:07:00,43.5,36.1,29.99,SE,135,3.6,3.6,74,0.00,,,0.02,WUHU21623XXSP,2013-02-22 19:07:00,
2013-02-22 14:17:00,43.9,36.1,29.98,SSW,202,0.9,0.9,74,0.00,,,0.02,WUHU21623XXSP,2013-02-22 19:17:00,
2013-02-22 14:27:00,44.6,36.3,29.98,South,180,0.0,6.9,73,0.00,,,0.02,WUHU21623XXSP,2013-02-22 19:27:00,
2013-02-22 14:37:00,44.4,36.3,29.98,South,180,4.7,4.7,73,0.00,,,0.02,WUHU21623XXSP,2013-02-22 19:37:00,
2013-02-22 14:47:00,44.2,35.8,29.98,ESE,112,2.0,2.0,72,0.00,,,0.02,WUHU21623XXSP,2013-02-22 19:47:00,
2013-02-22 14:57:00,43.7,35.3,29.98,SSE,157,0.0,4.7,72,0.00,,,0.02,WUHU21623XXSP,2013-02-22 19:57:00,
2013-02-22 15:07:00,43.3,34.9,29.98,SSE,157,0.0,1.8,72,0.00,,,0.02,WUHU21623XXSP,2013-02-22 20:07:00,
2013-02-22 15:17:00,43.5,35.1,29.98,SSE,157,0.4,0.4,72,0.00,,,0.02,WUHU21623XXSP,2013-02-22 20:17:00,
2013-02-22 15:27:00,43.5,35.1,29.98,SSE,157,2.2,3.6,72,0.00,,,0.02,WUHU21623XXSP,2013-02-22 20:27:00,
2013-02-22 15:37:00,43.5,35.1,29.98,South,180,0.0,2.2,72,0.00,,,0.02,WUHU21623XXSP,2013-02-22 20:37:00,
2013-02-22 15:47:00,43.5,34.8,29.98,SE,135,0.0,0.0,71,0.00,,,0.02,WUHU21623XXSP,2013-02-22 20:47:00,
2013-02-22 15:57:00,43.5,34.8,29.98,ESE,112,3.8,3.8,71,0.00,,,0.02,WUHU21623XXSP,2013-02-22 20:57:00,
2013-02-22 16:07:00,43.5,34.8,29.98,SE,135,0.0,0.0,71,0.00,,,0.02,WUHU21623XXSP,2013-02-22 21:07:00,
2013-02-22 16:17:00,43.5,35.1,29.98,SSE,157,0.0,3.6,72,0.00,,,0.02,WUHU21623XXSP,2013-02-22 21:17:00,
2013-02-22 16:27:00,43.7,34.9,29.98,SSE,157,0.0,0.0,71,0.00,,,0.02,WUHU21623XXSP,2013-02-22 21:27:00,
2013-02-22 16:37:00,43.3,34.6,29.98,SSE,157,2.9,2.9,71,0.00,,,0.02,WUHU21623XXSP,2013-02-22 21:37:00,
2013-02-22 16:47:00,43.2,34.4,29.97,SSE,157,0.0,3.1,71,0.00,,,0.02,WUHU21623XXSP,2013-02-22 21:47:00,
2013-02-22 16:57:00,43.0,34.3,29.97,ESE,112,0.0,0.0,71,0.00,,,0.02,WUHU21623XXSP,2013-02-22 21:57:00,
2013-02-22 17:07:00,42.6,34.3,29.97,SSW,202,0.0,0.0,72,0.00,,,0.02,WUHU21623XXSP,2013-02-22 22:07:00,
2013-02-22 17:18:00,42.6,34.3,29.97,SSE,157,0.0,2.7,72,0.00,,,0.02,WUHU21623XXSP,2013-02-22 22:18:00,
2013-02-22 17:28:00,42.6,34.3,29.98,SSW,202,0.0,0.0,72,0.00,,,0.02,WUHU21623XXSP,2013-02-22 22:28:00,
2013-02-22 17:38:00,42.4,33.8,29.97,SSE,157,0.0,0.0,71,0.00,,,0.02,WUHU21623XXSP,2013-02-22 22:38:00,
2013-02-22 17:48:00,42.1,33.7,29.97,SSE,157,0.0,0.0,72,0.00,,,0.02,WUHU21623XXSP,2013-02-22 22:48:00,
2013-02-22 17:58:00,41.7,33.4,29.97,South,180,0.0,0.0,72,0.00,,,0.02,WUHU21623XXSP,2013-02-22 22:58:00,
2013-02-22 18:08:00,41.7,33.4,29.97,ESE,112,0.0,0.0,72,0.00,,,0.02,WUHU21623XXSP,2013-02-22 23:08:00,
2013-02-22 18:18:00,41.5,33.2,29.97,SSE,157,0.0,5.6,72,0.00,,,0.02,WUHU21623XXSP,2013-02-22 23:18:00,
2013-02-22 18:28:00,41.2,32.8,29.98,SSE,157,0.0,1.1,73,0.00,,,0.02,WUHU21623XXSP,2013-02-22 23:28:00,
2013-02-22 18:38:00,40.8,32.8,29.98,SSW,202,0.0,0.0,73,0.00,,,0.02,WUHU21623XXSP,2013-02-22 23:38:00,
2013-02-22 18:48:00,40.6,32.6,29.97,SSE,157,0.0,1.6,73,0.00,,,0.02,WUHU21623XXSP,2013-02-22 23:48:00,
2013-02-22 18:58:00,40.6,32.6,29.98,SE,135,0.0,3.4,73,0.00,,,0.02,WUHU21623XXSP,2013-02-22 23:58:00,
2013-02-22 19:08:00,40.6,32.6,29.98,SE,135,0.0,2.5,73,0.00,,,0.02,WUHU21623XXSP,2013-02-23 00:08:00,
2013-02-22 19:18:00,40.6,32.6,29.98,South,180,0.0,2.5,73,0.00,,,0.02,WUHU21623XXSP,2013-02-23 00:18:00,
2013-02-22 19:28:00,40.6,32.6,29.97,SSE,157,2.0,2.0,73,0.00,,,0.02,WUHU21623XXSP,2013-02-23 00:28:00,
2013-02-22 19:38:00,40.6,32.6,29.97,SE,135,0.0,0.7,73,0.00,,,0.02,WUHU21623XXSP,2013-02-23 00:38:00,
2013-02-22 19:48:00,40.6,32.9,29.98,SSE,157,0.0,0.0,74,0.00,,,0.02,WUHU21623XXSP,2013-02-23 00:48:00,
2013-02-22 19:58:00,40.8,32.8,29.98,South,180,0.0,4.3,73,0.00,,,0.02,WUHU21623XXSP,2013-02-23 00:58:00,
2013-02-22 20:08:00,41.0,33.0,29.97,SE,135,2.0,3.4,73,0.00,,,0.02,WUHU21623XXSP,2013-02-23 01:08:00,
2013-02-22 20:18:00,40.8,32.8,29.97,SSE,157,1.3,4.7,73,0.00,,,0.02,WUHU21623XXSP,2013-02-23 01:18:00,
2013-02-22 20:28:00,40.8,32.8,29.97,SE,135,0.0,4.5,73,0.00,,,0.02,WUHU21623XXSP,2013-02-23 01:28:00,
2013-02-22 20:38:00,40.6,32.6,29.97,South,180,0.0,2.9,73,0.00,,,0.02,WUHU21623XXSP,2013-02-23 01:38:00,
2013-02-22 20:48:00,40.6,32.6,29.97,SSE,157,5.8,5.8,73,0.00,,,0.02,WUHU21623XXSP,2013-02-23 01:48:00,
2013-02-22 20:58:00,40.6,32.9,29.97,South,180,1.3,1.3,74,0.00,,,0.02,WUHU21623XXSP,2013-02-23 01:58:00,
2013-02-22 21:08:00,40.3,32.6,29.97,SSE,157,0.0,0.9,74,0.00,,,0.02,WUHU21623XXSP,2013-02-23 02:08:00,
2013-02-22 21:18:00,40.3,32.6,29.97,SE,135,0.0,0.0,74,0.00,,,0.02,WUHU21623XXSP,2013-02-23 02:18:00,
2013-02-22 21:28:00,40.3,32.6,29.98,SE,135,0.0,0.0,74,0.00,,,0.02,WUHU21623XXSP,2013-02-23 02:28:00,
2013-02-22 21:38:00,39.4,32.1,29.98,NE,45,0.0,6.3,75,0.00,,,0.02,WUHU21623XXSP,2013-02-23 02:38:00,
2013-02-22 21:48:00,39.0,32.1,29.98,NE,45,0.0,0.9,76,0.00,,,0.02,WUHU21623XXSP,2013-02-23 02:48:00,
2013-02-22 21:58:00,39.0,32.1,29.98,NE,45,0.0,2.0,76,0.00,,,0.02,WUHU21623XXSP,2013-02-23 02:58:00,
2013-02-22 22:08:00,39.0,31.7,29.99,SSE,157,0.0,0.0,75,0.00,,,0.02,WUHU21623XXSP,2013-02-23 03:08:00,
2013-02-22 22:18:00,38.8,31.6,29.98,SE,135,0.0,0.0,75,0.00,,,0.02,WUHU21623XXSP,2013-02-23 03:18:00,
2013-02-22 22:28:00,38.5,31.2,29.98,SSE,157,3.4,3.4,75,0.00,,,0.02,WUHU21623XXSP,2013-02-23 03:28:00,
2013-02-22 22:38:00,38.1,30.9,29.98,SSE,157,0.0,2.2,75,0.00,,,0.02,WUHU21623XXSP,2013-02-23 03:38:00,
2013-02-22 22:48:00,37.9,30.7,29.98,SE,135,0.0,0.0,75,0.00,,,0.02,WUHU21623XXSP,2013-02-23 03:48:00,
2013-02-22 22:58:00,37.8,30.5,29.98,SE,135,0.0,0.0,75,0.00,,,0.02,WUHU21623XXSP,2013-02-23 03:58:00,
2013-02-22 23:08:00,37.6,30.7,29.98,SE,135,0.0,0.0,76,0.00,,,0.02,WUHU21623XXSP,2013-02-23 04:08:00,
2013-02-22 23:18:00,37.2,30.3,29.98,SE,135,0.0,0.0,76,0.00,,,0.02,WUHU21623XXSP,2013-02-23 04:18:00,
2013-02-22 23:28:00,37.2,30.3,29.98,SE,135,0.0,0.0,76,0.00,,,0.02,WUHU21623XXSP,2013-02-23 04:28:00,
2013-02-22 23:38:00,37.2,30.3,29.97,SE,135,0.0,0.4,76,0.00,,,0.02,WUHU21623XXSP,2013-02-23 04:38:00,
2013-02-22 23:48:00,37.2,30.3,29.97,SE,135,0.0,0.0,76,0.00,,,0.02,WUHU21623XXSP,2013-02-23 04:48:00,
2013-02-22 23:58:00,37.0,30.2,29.96,SE,135,0.0,0.0,76,0.00,,,0.02,WUHU21623XXSP,2013-02-23 04:58:00,